Terminal Aerodrome Forecast
Issued by NWS Billings, MT

Home | Current Version | Previous Version | Graphics & Text | Print | Product List | Glossary On
Versions: 1 2 3 4 5 6 7 8 9 10 11 12 13 14 15 16 17 18 19 20 21 22 23 24 25 26 27 28 29 30
000
FTUS45 KBYZ 242327
TAFMLS
TAF
KMLS 242327Z 2500/2524 09009KT P6SM VCSH FEW035 BKN050
     FM250200 08005KT P6SM VCSH BKN015
     FM250700 04005KT P6SM VCSH SCT025 BKN035=

USA.gov is the U.S. government's official web portal to all federal, state and local government web resources and services.